Location: Ngapuketurua
(40.6667°S, 175.5000°E)
Time: 10:06:41
(UTC+00:00)

Daily predictions for brighter satellites

Satellite Brightness Start Highest point End
(mag) Time Altitude Azimuth Time Altitude Azimuth Time Altitude Azimuth
Cosmos 1943 Rocket 4.5 16:04:59 18° SE 16:05:00 18° SE 16:08:41 10° E
Cosmos 2278 Rocket 4.5 16:14:02 17° NE 16:14:02 17° NE 16:15:14 10° NE
Atlas Centaur 2 4.4 16:25:45 12° NE 16:25:45 12° NE 16:26:22 10° NE
SeaSat 1 4.4 16:21:18 10° ENE 16:24:32 26° ESE 16:24:32 26° ESE
USA 234 3.6 16:27:14 10° SE 16:33:43 57° NE 16:34:10 56° NNE
SL-16 R/B 3.4 16:39:35 18° NNE 16:43:12 39° ENE 16:48:27 10° SE
Lacrosse 5 4.3 16:56:29 13° SSE 16:56:29 13° SSE 16:58:12 10° SE
CZ-2C R/B 4.2 16:53:41 10° SSE 16:58:33 34° E 17:03:27 10° NNE
H-2A R/B 3.4 16:55:25 10° NE 16:59:51 34° ESE 17:03:14 16° SSE
Cosmos 2237 Rocket 3.9 17:10:47 20° S 17:10:47 20° S 17:12:34 10° SSE
ADEOS 4.2 17:04:10 10° NNE 17:09:17 55° ESE 17:12:00 27° S
Tiangong 3.6 17:18:23 21° E 17:18:23 21° E 17:19:38 10° E
SMAP 4.2 17:12:15 10° NE 17:16:40 43° ESE 17:19:56 17° S
SL-08 R/B 3.5 17:16:33 10° SSE 17:21:19 70° ENE 17:26:06 10° N
X-37B 3.0 17:26:55 20° ESE 17:26:55 20° ESE 17:27:59 10° ESE
Meteor PRIRODA 4.4 17:22:07 10° NNE 17:25:43 50° ESE 17:25:59 49° ESE
Lacrosse 4 Rocket 2.4 17:24:48 10° N 17:29:00 48° ENE 17:33:19 10° SE
COSMOS 2455 2.8 17:29:32 56° WSW 17:29:51 57° WSW 17:35:49 10° SSE
FengYun 1-2 T 4.1 17:24:29 10° N 17:30:01 79° WNW 17:32:27 35° SSW
Meteor 2-16 Rocket 4.4 17:31:00 44° SW 17:32:40 58° W 17:38:41 10° N
Meteor 2-10 4.1 17:29:04 21° S 17:32:57 89° ESE 17:38:22 10° N
Cosmos 2369 Rocket 3.8 17:28:01 10° S 17:33:07 31° ESE 17:38:08 10° ENE
Lacrosse 5 rocket 3.6 17:36:12 16° S 17:37:30 18° SSE 17:40:33 10° ESE
Cosmos 332 Rocket 3.9 17:38:38 53° SW 17:38:38 53° SW 17:42:53 10° S
Cosmos 2026 Rocket 3.9 17:36:33 23° SSW 17:40:20 61° W 17:46:21 10° N
Meteor 1-12 Rocket 4.4 17:36:52 10° S 17:43:00 86° E 17:49:02 10° N
Cosmos 1627 Rocket 4.5 17:40:56 23° SSW 17:44:41 55° W 17:50:40 10° NNW
CZ-2D R/B 3.5 17:42:01 10° NNE 17:45:50 70° ESE 17:47:59 25° S
Cosmos 1703 Rocket 3.6 17:42:26 10° N 17:46:58 87° E 17:51:32 10° S
Cosmos 1943 Rocket 2.0 17:46:33 31° SSW 17:49:21 75° WNW 17:54:57 10° NNE
NOAA 12 4.3 17:44:57 10° N 17:50:01 46° W 17:51:12 39° WSW
Cosmos 2278 Rocket 4.1 17:55:57 13° NW 17:55:57 13° NW 17:56:59 10° NW
DELTA 2 R/B (1) 4.1 17:55:32 32° WNW 17:57:40 48° NNW 18:03:01 10° NE
Okean O Rocket 4.3 17:56:58 10° ENE 17:59:41 16° ESE 18:02:25 10° SSE
Cosmos 1242 Rocket 3.3 17:56:21 11° S 17:59:43 52° ESE 18:03:16 10° NNE
MINOTAUR 4 R/B 4.0 17:58:20 10° S 18:01:53 58° WSW 18:05:22 10° NNW
SeaSat 1 2.9 17:58:09 10° N 18:02:47 40° WNW 18:04:19 32° WSW
NOAA 6 4.0 17:59:39 10° NNE 18:04:48 88° W 18:10:02 10° SSW
CZ-4B R/B 2.9 18:02:27 10° N 18:06:24 59° W 18:09:12 20° SSW
Cosmos 1782 Rocket 3.7 18:02:18 10° S 18:06:44 77° E 18:11:06 10° NNE
ARGOS 3.2 18:05:16 10° NNE 18:10:40 85° ESE 18:16:08 10° SSW
Atlas Centaur 2 3.7 18:08:17 13° NW 18:10:57 19° N 18:14:45 10° NE
Cosmos 1908 Rocket 3.7 18:08:52 21° SSW 18:11:29 47° W 18:15:39 10° NNW
NOSS 3-4 (A) 4.4 18:05:24 11° SSW 18:12:09 49° SE 18:18:09 10° ENE
NOSS 3-4 (C) 4.4 18:05:24 10° SSW 18:12:09 48° SE 18:18:11 10° ENE
Aureole 3 Rocket 4.2 18:10:24 10° N 18:16:06 89° W 18:24:15 10° S
USA 234 3.6 18:10:21 10° SE 18:16:36 47° SSW 18:21:33 16° W
USA 281 3.7 18:10:29 10° NE 18:16:55 60° ESE 18:23:24 10° SSW
SAR-Lupe-3 4.5 18:15:19 10° N 18:18:57 73° WNW 18:22:27 11° SSW
APEX 3.5 18:15:44 10° NNW 18:19:22 75° ENE 18:23:57 10° SSE
Cosmos 1674 4.1 18:17:36 10° NNE 18:21:07 41° E 18:24:42 10° SSE
ERBS 4.5 18:24:06 11° NW 18:24:06 11° NW 18:24:36 10° NW
Cosmos 1707 2.8 18:21:32 10° N 18:25:27 86° E 18:29:25 10° S
Cosmos 1726 3.0 18:25:01 25° WSW 18:25:49 28° W 18:29:01 10° NNW
CZ-4 R/B 3.9 18:23:23 10° ENE 18:26:15 19° ESE 18:29:09 10° SSE
Okean 3 3.9 18:22:49 10° NW 18:26:43 37° WSW 18:30:42 10° S
USA 276 2.2 18:25:37 28° W 18:26:57 53° SSW 18:30:00 10° SE
Cosmos 2242 Rocket 3.9 18:22:43 10° NNW 18:27:10 48° WSW 18:31:41 10° S
SL-16 R/B 2.9 18:22:21 10° WNW 18:27:21 31° WSW 18:32:24 10° S
Cosmos 2266 Rocket 4.0 18:23:10 10° S 18:29:42 85° W 18:36:01 10° N
Cosmos 2297 4.1 18:28:04 13° SW 18:32:52 45° WNW 18:38:16 10° N
In-Cosmos 22 4.4 18:27:52 10° N 18:33:40 80° E 18:39:29 10° SSE
Cosmos 1656 Rocket 3.8 18:29:48 10° SSW 18:35:29 78° ESE 18:41:02 10° NNE
Cosmos 405 Rocket 2.7 18:34:16 10° N 18:37:58 83° E 18:41:44 10° S
Cosmos 292 Rocket 3.7 18:33:45 10° NNW 18:38:37 74° WSW 18:43:32 10° SSE
CZ-2C R/B 3.3 18:34:03 10° S 18:38:43 31° WSW 18:43:25 10° NW
Cosmos 1375 Rocket 4.5 18:32:40 10° SW 18:39:00 72° WNW 18:45:20 10° NNE
H-2A R/B 2.9 18:35:12 10° NNW 18:39:18 26° W 18:43:30 10° SW
Cosmos 1437 Rocket 3.7 18:35:33 10° S 18:39:20 48° ESE 18:43:00 10° NNE
Okean 1-7 4.2 18:36:18 10° NW 18:39:49 23° WSW 18:43:23 10° SSW
Cosmos 1943 3.2 18:34:19 10° NNW 18:39:59 87° WSW 18:45:45 10° SSE
Lacrosse 5 3.4 18:35:59 10° SSW 18:40:23 28° SSE 18:44:46 10° E
OBJECT-B 3.7 18:45:27 10° E 18:46:10 11° ESE 18:46:54 10° SE
COSMO-SKYMED 1 2.6 18:41:58 10° S 18:46:21 61° WSW 18:50:39 10° NNW
Cosmos 2263 4.2 18:41:57 10° SSW 18:47:40 87° ESE 18:53:18 10° NNE
FALCON 9 R/B 3.0 18:49:40 10° NNW 18:49:55 10° NNW 18:50:11 10° NNW
Cosmos 1300 Rocket 3.5 18:45:57 10° SSW 18:50:19 64° W 18:54:38 10° N
Cosmos 1842 4.4 18:47:39 10° NW 18:50:49 23° WSW 18:54:02 10° SSW
Tiangong 1.2 18:50:33 13° W 18:53:17 74° NNW 18:56:29 10° ENE
PSLV R/B 4.0 18:50:02 10° N 18:54:03 56° W 18:58:05 10° SSW
SMAP 4.5 18:50:50 10° NW 18:54:11 19° W 18:57:34 10° SW
Sich 1 Rocket 3.7 18:50:11 10° S 18:54:41 86° E 18:59:06 10° N
Okean 2 Rocket 3.5 18:51:43 10° S 18:56:17 70° E 19:00:49 10° NNE
Cosmos 1603 3.7 18:50:43 10° NNW 18:56:23 74° WSW 19:02:03 10° SSE
SL-08 RB Rocket 4.1 18:53:15 10° N 18:57:32 43° W 19:01:52 10° SSW
X-37B 1.3 18:58:09 11° WSW 19:00:43 35° S 19:03:28 10° ESE
Cosmos 2151 Rocket 3.9 18:58:10 10° S 19:02:40 72° E 19:07:04 10° NNE
GENESIS II 4.2 19:02:08 10° SW 19:05:46 56° WNW 19:09:23 10° NNE
CZ-4B R/B 3.1 19:01:38 10° N 19:06:57 80° WNW 19:12:21 10° SSW
Lacrosse 4 Rocket 2.9 19:04:44 10° W 19:07:55 19° SW 19:11:10 10° S
Iridium 51 4.1 19:06:37 10° NNW 19:10:08 56° W 19:13:37 10° S
SL-14 R/B 3.8 19:11:47 10° N 19:15:45 66° E 19:19:44 10° SSE
Iridium 4 Rocket 3.8 19:11:42 10° S 19:15:59 59° E 19:20:28 10° NNE
Cosmos 2369 Rocket 2.8 19:11:54 10° SW 19:17:10 38° WNW 19:22:21 10° N
Cosmos 1607 4.3 19:12:09 10° NNW 19:18:25 77° ENE 19:24:50 10° SE
